Flag for Germany Weather past 2 weeks in Erlangen, Bavaria, Germany

Now
63 °F

Broken clouds.


Feels Like: 63 °F
Forecast: 48 / 69 °F
Wind: 5 mph from North

Location: Nuernberg

Current Time: Aug 20, 2014 at 1:50:44 PM

Latest Report: Aug 20, 2014 at 1:20 PM


Visibility: N/A

Pressure: 30.04 "Hg

Humidity: 52%

Dew point: 45 °F

Location of ErlangenLocation

Historic Weather in Erlangen — Graph

°F

Erlangen temperature yesterday

Maximum temperature yesterday: 68 °F (at 2:50 PM)
Minimum temperature yesterday: 46 °F (at 6:50 AM)
Average temperature yesterday: 58 °F

Past Weeks' High & Low Weather Summary

 TemperatureHumidityPressure
High84 °F (Aug 10, 2:20 PM)100% (Aug 6, 1:50 AM)30.12 "Hg (Aug 6, 1:50 AM)
Low46 °F (Aug 19, 6:50 AM)35% (Aug 10, 4:50 PM)29.68 "Hg (Aug 13, 2:50 PM)
Average63 °F74%29.95 "Hg
* Reported Aug 5 12:20 PM — Aug 20 12:50 PM, Erlangen, Weather by CustomWeather, © 2014

Note: Actual official high and low records may vary slightly from our data, if they occured in-between our weather recording intervals... More about our weather records

Advertising

Erlangen weather history for previous 24 hours

 ConditionsComfort  
Time TempWeatherWind HumidityBarometerVisibility
12:50 PM
Aug 20
61 °FBroken clouds.7 mph52%30.04 "HgN/A
12:20 PM61 °FBroken clouds.6 mph52%30.04 "HgN/A
11:50 AM61 °FScattered clouds.5 mph55%30.04 "HgN/A
11:20 AM59 °FScattered clouds.6 mph63%30.04 "HgN/A
10:50 AM57 °FScattered clouds.6 mph67%30.04 "HgN/A
10:20 AM57 °FScattered clouds.6 mph63%30.04 "HgN/A
9:50 AM57 °FPassing clouds.2 mph72%30.04 "HgN/A
9:20 AM55 °FPassing clouds.1 mph77%30.04 "HgN/A
8:50 AM54 °FPassing clouds.1 mph88%30.04 "HgN/A
8:20 AM52 °FPassing clouds.3 mph88%30.04 "HgN/A
7:50 AM52 °FPassing clouds.1 mph88%30.04 "HgN/A
7:20 AM48 °FScattered clouds.1 mph94%30.04 "HgN/A
6:50 AM46 °FPassing clouds.1 mph100%30.04 "HgN/A
6:20 AM46 °FFog.1 mph100%30.01 "HgN/A
5:50 AM48 °FPassing clouds.2 mph94%30.01 "HgN/A
5:20 AM48 °FPassing clouds.1 mph94%30.01 "HgN/A
4:50 AM48 °FPassing clouds.1 mph94%30.01 "HgN/A
4:20 AM48 °FPassing clouds.2 mph94%30.01 "HgN/A
3:50 AM48 °FPassing clouds.3 mph94%29.98 "HgN/A
3:20 AM48 °FPassing clouds.2 mph94%29.98 "HgN/A
2:50 AM48 °FPassing clouds.2 mph100%29.98 "HgN/A
2:20 AM50 °FClear.2 mph88%29.98 "Hg10 mi
1:50 AM46 °FClear.3 mph93%29.98 "Hg10 mi
1:20 AM48 °FClear.1 mph94%29.98 "Hg10 mi
12:50 AM50 °FClear.1 mph94%29.98 "Hg10 mi
12:20 AM52 °FClear.1 mph88%29.98 "Hg10 mi
11:50 PM
Aug 19
52 °FClear.1 mph88%29.98 "Hg10 mi
11:20 PM54 °FClear.1 mph82%29.98 "Hg10 mi
10:50 PM54 °FClear.1 mph82%29.98 "Hg10 mi
10:20 PM57 °FPassing clouds.3 mph77%29.95 "HgN/A
9:50 PM57 °FPassing clouds.7 mph72%29.95 "HgN/A
9:20 PM61 °FSunny.6 mph63%29.92 "Hg10 mi
8:50 PM61 °FSunny.9 mph59%29.92 "Hg10 mi
8:20 PM63 °FSunny.12 mph59%29.92 "Hg10 mi
7:50 PM64 °FSunny.12 mph56%29.89 "Hg10 mi
7:20 PM66 °FSunny.15 mph49%29.89 "Hg10 mi
6:50 PM66 °FSunny.18 mph46%29.89 "Hg10 mi
6:20 PM68 °FPassing clouds.12 mph46%29.89 "HgN/A
5:50 PM68 °FSunny.14 mph49%29.89 "Hg10 mi
5:20 PM66 °FSunny.18 mph49%29.86 "Hg10 mi
4:50 PM66 °FPassing clouds.12 mph49%29.86 "HgN/A
4:20 PM68 °FPassing clouds.13 mph46%29.86 "HgN/A
3:50 PM68 °FPassing clouds.12 mph43%29.86 "HgN/A
3:20 PM68 °FScattered clouds.14 mph49%29.89 "HgN/A
2:50 PM68 °FPartly sunny.12 mph46%29.89 "HgN/A
2:20 PM66 °FPassing clouds.9 mph52%29.89 "HgN/A
1:50 PM66 °FPassing clouds.7 mph52%29.89 "HgN/A
1:20 PM63 °FSunny.6 mph56%29.89 "Hg10 mi
Weather by CustomWeather, © 2014

See weather overviewHow to use our weather pages